This is the latest recevied weather packets stored in our database for station/object DG4MJS-10. If no packets are shown the sender has not sent any weather packets the latest 10 day(s).
| Time | Temp. | Humidity | Pressure | Rain* | Wind** | Luminosity | Snow |
|---|---|---|---|---|---|---|---|
| 1777748402 | 16.11° C | 52% | 1016.6 hPa | - | - | - | - |
| 1777747502 | 16.67° C | 49% | 1016.5 hPa | - | - | - | - |
| 1777746602 | 16.67° C | 50% | 1016.4 hPa | - | - | - | - |
| 1777745702 | 17.22° C | 49% | 1016.4 hPa | - | - | - | - |
| 1777744802 | 16.67° C | 51% | 1016.3 hPa | - | - | - | - |
| 1777743902 | 16.67° C | 52% | 1016.4 hPa | - | - | - | - |
| 1777743002 | 16.67° C | 52% | 1016.4 hPa | - | - | - | - |
| 1777742102 | 16.67° C | 51% | 1016.4 hPa | - | - | - | - |
| 1777741202 | 16.67° C | 51% | 1016.5 hPa | - | - | - | - |
| 1777740302 | 16.67° C | 52% | 1016.6 hPa | - | - | - | - |
| 1777739402 | 16.67° C | 53% | 1016.8 hPa | - | - | - | - |
| 1777738503 | 16.67° C | 55% | 1016.9 hPa | - | - | - | - |
| 1777737603 | 17.22° C | 55% | 1017.1 hPa | - | - | - | - |
| 1777736703 | 17.22° C | 57% | 1017.2 hPa | - | - | - | - |
| 1777735803 | 17.22° C | 46% | 1017.4 hPa | - | - | - | - |
| 1777734903 | 18.33° C | 41% | 1017.5 hPa | - | - | - | - |
| 1777734002 | 17.78° C | 42% | 1017.7 hPa | - | - | - | - |
| 1777733102 | 17.78° C | 40% | 1017.9 hPa | - | - | - | - |
| 1777732202 | 18.33° C | 40% | 1018 hPa | - | - | - | - |
| 1777731302 | 19.44° C | 34% | 1018.1 hPa | - | - | - | - |
| 1777730402 | 18.89° C | 36% | 1018.3 hPa | - | - | - | - |
| 1777729502 | 20.56° C | 32% | 1018.3 hPa | - | - | - | - |
| 1777728602 | 18.33° C | 39% | 1018.8 hPa | - | - | - | - |
| 1777727702 | 17.78° C | 41% | 1019 hPa | - | - | - | - |
| 1777726802 | 16.67° C | 40% | 1019.1 hPa | - | - | - | - |
* Rain since midnight (hover to see other rain measurements)
** Current wind speed in m/s (hover to see current wind gust speed)